Location: Unspecified
(0.0000°N, 0.0000°E)
Time: 15:28:54
(UTC+02:00)

IUS-9 SRM-1 - Visible Passes

Search period start: 31 July 2014 00:00
Search period end: 10 August 2014 00:00
Orbit: 241 x 20774 km, 26.4° (Epoch: 30 July)

Date Brightness Start Highest point End Pass type
(mag) Time Alt. Az. Time Alt. Az. Time Alt. Az.
31 Jul 8.0 01:26:23 10° WNW 05:50:22 47° SSW 06:23:20 10° ESE visible
31 Jul 7.8 19:05:36 10° NNW 19:21:41 41° NE 23:21:21 10° ESE visible
01 Aug 7.9 01:46:41 10° WNW 06:14:18 45° SSW 06:40:19 10° ESE visible
01 Aug 7.8 19:21:46 10° NW 19:39:46 46° NE 23:47:29 10° ESE visible
02 Aug 7.8 02:07:50 10° W 06:35:52 44° S 06:57:03 10° ESE visible
02 Aug 7.9 19:37:48 10° NW 19:57:50 51° NE 00:11:05 10° ESE visible
03 Aug 7.7 02:30:15 10° W 06:55:57 43° S 07:13:32 10° ESE visible
03 Aug 8.0 19:53:40 10° NW 20:15:55 56° NE 00:32:58 10° ESE visible
04 Aug 7.4 02:54:39 10° W 07:14:59 43° S 07:29:46 10° ESE visible
04 Aug 8.1 20:09:24 10° NW 20:34:04 61° NE 00:53:35 10° ESE visible
05 Aug 7.2 03:22:28 10° W 07:33:11 43° S 07:45:45 10° ESE visible
05 Aug 8.3 20:24:59 10° NW 20:52:23 67° NE 01:13:13 10° ESE visible
06 Aug 6.9 03:57:17 10° W 07:50:43 44° S 08:01:29 10° ESE visible
06 Aug 8.4 20:40:26 10° NW 21:10:55 72° NE 01:32:04 10° ESE visible
07 Aug 6.6 04:54:29 10° WSW 08:07:41 45° S 08:16:59 10° ESE visible
07 Aug 8.5 20:55:44 10° NW 21:29:47 77° NE 01:50:15 10° ESE visible
08 Aug 6.3 07:04:26 11° WSW 08:24:09 47° S 08:32:15 10° E visible
08 Aug 8.6 21:10:56 10° NW 21:49:02 82° NE 02:07:53 10° ESE visible
09 Aug 6.0 07:37:34 10° WSW 08:40:11 50° S 08:47:15 10° E visible
09 Aug 8.8 21:26:00 10° WNW 22:08:46 87° NE 00:00:00 62° SE visible
